Regional Weather Roundup
Issued by NWS Northern Indiana

Home | Current Version | Previous Version | Text Only | Print | Product List | Glossary Off
Versions: 1 2 3 4 5 6 7 8 9 10 11 12 13 14 15 16 17 18 19 20 21 22 23 24 25 26 27 28 29 30 31 32 33 34 35 36 37 38 39 40 41 42 43 44 45 46 47 48 49 50

000
ASUS43 KIWX 271710
RWRIWX

KIWX WEATHER ROUNDUP
NATIONAL WEATHER SERVICE NORTHERN INDIANA
100 PM EDT WED JUL 27 2016

NOTE: "FAIR" INDICATES FEW OR NO CLOUDS BELOW 12,000 FEET WITH NO
SIGNIFICANT WEATHER AND/OR OBSTRUCTIONS TO VISIBILITY.

* THESE STATIONS ARE NOT UNDER NWS QUALITY CONTROL. THEY ALSO MAY NOT
  REPORT WEATHER SUCH AS PRECIPITATION OR FOG.

INZ001>027-271800-
NORTHERN INDIANA

CITY           SKY/WX    TMP DP  RH WIND       PRES   REMARKS
GARY*          MOSUNNY   86  70  58 NE5       30.03R
VALPARAISO     MOSUNNY   86  65  49 VRB6      30.03S
MICHIGAN CITY* SUNNY     82  68  61 NW6       30.03S
LAPORTE*       PTSUNNY   85  67  54 SW5       30.04R
KNOX*          MOSUNNY   82  54  36 CALM      30.02S
SOUTH BEND     MOSUNNY   83  66  56 VRB5      30.03S
ELKHART*       SUNNY     82  68  61 CALM      30.03
GOSHEN         SUNNY     85  58  39 MISG      30.03S
MONTICELLO*    PTSUNNY   83  63  51 CALM      30.03R
LOGANSPORT*    PTSUNNY   82  64  54 S3        30.04S
ROCHESTER*     MOSUNNY   82  68  61 NE5       30.04S
WARSAW*        MOSUNNY   82  64  54 W6        30.03S
ANGOLA*          N/A     86  64  48 CALM      30.03S
FORT WAYNE     MOSUNNY   85  61  44 SW5       30.03S
HUNTINGTON*    MOSUNNY   83  64  52 W3        30.02F
PERU/GRISSOM   MOSUNNY   84  65  53 VRB1      30.02S
MARION*        SUNNY     82  64  54 CALM      30.04S

$$
INZ028>050-271800-
CENTRAL INDIANA

CITY           SKY/WX    TMP DP  RH WIND       PRES   REMARKS
LAFAYETTE      PTSUNNY   84  67  56 SE5       30.02F
KOKOMO*        MOSUNNY   88  64  45 N5        30.03S
MUNCIE*        SUNNY     86  64  47 N8        30.03F
INDIANAPOLIS   MOSUNNY   84  64  50 VRB3      30.02F

$$
MIZ043>046-050>051-056>058-064>065-071>073-077>080-271800-
SOUTHWEST LOWER MICHIGAN

CITY           SKY/WX    TMP DP  RH WIND       PRES   REMARKS
BATTLE CREEK   SUNNY     81  59  47 W5        30.03S
BENTON HARBOR  SUNNY     83  64  52 NW6       30.02R
COLDWATER*     SUNNY     83  63  50 W5        30.03S
HILLSDALE*     SUNNY     81  63  53 S5        30.03S
HOLLAND        MOSUNNY   82  68  62 VRB7      30.03R
GRAND RAPIDS   PTSUNNY   83  66  56 SW8       30.01S
KALAMAZOO      SUNNY     84  61  45 VRB6      30.02R
STURGIS*       SUNNY     83  60  46 CALM      30.03R
THREE RIVERS*  FAIR      84  59  42 CALM      30.03S

$$
OHZ001>008-015>018-024>025-271800-
NORTHWEST OHIO

CITY           SKY/WX    TMP DP  RH WIND       PRES   REMARKS
DEFIANCE       PTSUNNY   85  64  49 S6        30.02S
FINDLAY        SUNNY     88  57  34 SE8       30.01S
TOLEDO EXPRESS MOSUNNY   84  63  49 CALM      30.01S
TOLEDO METCALF SUNNY     87  62  43 S5        30.01F
LIMA           SUNNY     85  63  47 CALM      30.02F

$$
AND FOR LAKE MICHIGAN COASTAL AND OPEN LAKE BUOY OBSERVATIONS

STATION/POSITION TEMP    WIND        PRES    VSBY  WAVE
                 AIR SEA DIR/SP/G                  HT/PER
                 (F)     (DEG/KT/KT) (MB)    (MI)  (FT/S)
MICHIGAN CITY     78     300/  3/  4   N/A
BURNS HARBOR      76     350/  3/  4 1016.9S
SAINT JOSEPH      80     230/  6/  7 1017.6R
SOUTH LAKE BUOY   76 76  260/  4/  4 1015.7R         0
4 MI NW BRIDGMAN  76 78  230/  6/  6 1016.4R         0
MICHIGAN CITY     77 78  340/  2/  4   N/A           0

$$
&&




USA.gov is the U.S. government's official web portal to all federal, state and local government web resources and services.